Histats




Payment Methods

Western union payment, western union, western union payment method

Western Union connects people and businesses around the globe by providing fast, reliable and convenient ways to move money. Our 162-year history and 515,000 Western Union Agent locations in more than 200 countries and territories strengthen our commitment to offering our services in every corner of the globe.

skrill, skrill transfer, payment skrill, skrill payment method

Skrill is a leading online payments and Digital Wallet service with over 15 million account holders. Skrill worldwide payment network offers businesses to directly proccess over 100 payment options in over 200 countries and territories, through just one integration.

Paypal, paypal payment option, paypal payment, payment method paypal accepted

PayPal is a global e-commerce business allowing payments and money transfers to be made through the Internet. Online money transfers serve as electronic alternatives to paying with traditional paper methods, such as checks and money orders.

moneygram, moneygram payment method, moneygram payment option accpeted

MoneyGram International Inc. is a money transfer company based in the United States with headquarters in Dallas, Texas. It has an operation center in St. Louis Park, Minnesota and regional and local offices around the world

neteller, neteller payment accepted, payment option neteller
Neteller Trusted by merchants and consumers alike, our financial services span more than 200 countries across a broad spectrum of industries and businesses. For over a decade, NETELLER has provided businesses and individuals with a fast, simple and secure way to move money online. As one of the world’s largest independent money transfer businesses, we process billions of dollars’ worth of transactions each year.

bitcoin, bitcoin payment, sites that accept bitcoin payment
Bitcoin is an innovative payment network and a new kind of money. Find all you need to know and get started with Bitcoin on bitcoin.org

 megapicks-1x2.com, 100% sure football matches, free fixed matches today 100% sure predictions , vip tips1x2, fixed matches, fixed matches 100% sure, free tips 100% sure, correct score  http://i.imgur.com/anP2f6t.gif

 gremio-tip   GUNNERSTIP.COM - FIXED MATCHES 100% SURE

 Fixed correct score soccer pick 1x2 free matches 1x2  

TICKET OFFER
Professional branded companies with license and certificate
Elaborate scheme successfully proven
You can use this matches from anywhere in world
 Support and safe bets for all of our clients

http://i.imgur.com/rRN5R.png

For 17.04.2021 (Saturday) our team have info for 5 vip matches 100% sure!

For 5 vip matches around 900.00 odds (1 ticket) + bonus ticket 600.00 odd !

For 2 vip tickets + 2 bonus tickets 600.00 odd !

For 3 vip tickets + 3 bonus tickets 600.00 odd !

For 5 vip tickets  +  5 bonus tickets 600.00 odd !

For 10 vip tickets  +  10 bonus tickets 600.00 odd !

Price contact on e-mail!

Contact email:  zidanetips1@gmail.com

Whatsapp: +389 79 349 683

Ticket for 17.04.2021

17.04.2021 ??? – ??? ? ?.? ?.?
17.04.2021 ??? – ??? ? ?.? ?.?
17.04.2021 ??? – ??? ? ?.? ?.?
17.04.2021 ??? – ??? ? ?.? ?.?
17.04.2021 ??? – ??? ? ?.? ?.?

Ticket for 14.04.2021

14.04.2021 U. Cluj – Pandurii X 5.90 1:1
14.04.2021 Kriens – Servette X 4.35 2:2
14.04.2021 Rayo Vallecano – Mirandes 2 5.50 0:1
14.04.2021 Menemenspor – Samsunspor X 3.75 2:2
14.04.2021 Banska Bystrica – Dun. Streda 1 4.90 3:2

Whatsapp Evidence (10.04.2021)

WIN WIN WIN WIN WIN WIN

Ticket for 10.04.2021

10.04.2021 Portsmouth – Burton 2 4.60 1:2
10.04.2021 Dukla Prague – Varnsdorf 2 6.50 1:2
10.04.2021 Admira – Ried 2 3.50 0:2
10.04.2021 Getafe – Cadiz CF 2 5.40 0:1
10.04.2021 Slutsk – Zhodino 1 4.90 2:0

Ticket for 07.04.2021

07.04.2021 Teplice – Mlada Boleslav 1 3.60 2:1
07.04.2021 Neman – Shakhtyor Soligorsk 1 5.10 2:1
07.04.2021 Ipora – Goias X 4.20 1:1
07.04.2021 Samambaia – Santa Maria 2 4.30 0:3
07.04.2021 El Ismaily – El Masry 1 4.20 2:1

Ticket for 03.04.2021

03.04.2021 Pohronie – Sered 2 4.90 1:2
03.04.2021 Grasshoppers – Xamax 2 5.40 1:4
03.04.2021 Khorfakkan – Ajman 2 4.40 2:3
03.04.2021 Winterthur – Chiasso 2 4.20 0:1
03.04.2021 Logrones – Tenerife 1 4.20 1:0

Ticket for 31.03.2021

31.03.2021 Pogon Siedlce – Ostroda 2 3.30 2:3
31.03.2021 Hajer – Al Draih 2 4.20 0:1
31.03.2021 Armenia – Romania 1 4.30 3:2
31.03.2021 Albacete – Castellon 2 3.60 0:1
31.03.2021 Al-Nahda – Ohod 2 3.40 2:3

Whatsapp Evidence (27.03.2021)

WIN WIN WIN WIN WIN WIN

Ticket for 27.03.2021

27.03.2021 Aarhus Fremad – Holbaek 2 9.80 1:3
27.03.2021 Aldosivi – Banfield X 3.40 1:1
27.03.2021 Temperley – Agropecuario 2 3.50 0:2
27.03.2021 Slovakia – Malta X 8.80 2:2
27.03.2021 Harrogate – Southend 2 5.35 0:1

Ticket for 24.03.2021

24.03.2021 Finland – Bosnia & Herzegovina X 3.30 2:2
24.03.2021 Turkey – Netherlands 1 4.90 4:2
24.03.2021 Kocaelispor – Amedspor 2 4.40 1:2
24.03.2021 Klubi 04 – JaPS 2 6.50 0:1
24.03.2021 Belarus – Honduras X 3.40 1:1

Whatsapp Evidence (20.03.2021)

WIN WIN WIN WIN WIN WIN

Ticket for 20.03.2021

20.03.2021 Barnsley – Sheffield Wed 2 5.20 1:2
20.03.2021 Aarhus Fremad – Naesby X 4.50 1:1
20.03.2021 Tsarsko Selo – Ludogorets X 5.80 1:1
20.03.2021 Dalum IF – Brabrand 2 3.90 0:1
20.03.2021 Fleetwood – Swindon 2 5.80 0:2

Ticket for 17.03.2021

17.03.2021 Nea Salamis – AEL Limassol 1 3.90 1:0
17.03.2021 Slavia Sofia – Levski Sofia 1 3.70 2:1
17.03.2021 Alashkert – Shirak Gyumri X 5.70 0:0
17.03.2021 Colon Santa FE – Argentinos Jrs 2 3.60 0:1
17.03.2021 America EC – Dorense X 6.40 1:1

Ticket for 13.03.2021

13.03.2021 QPR – Huddersfield 2 4.30 0:1
13.03.2021 Nea Salamis – Achnas 2 4.35 0:2
13.03.2021 BK Frem – Dalum IF 2 5.20 0:2
13.03.2021 Birmingham – Bristol City 2 4.10 0:3
13.03.2021 Crewe – Burton 2 4.30 0:3

Ticket for 10.03.2021

10.03.2021 Baroka – Stellenbosch 2 3.30 1:3
10.03.2021 Bravo – Aluminij 2 3.90 0:1
10.03.2021 Omsk – Tekstilshtik 2 3.80 0:1
10.03.2021 Al-Ittihad FC – Al-Shabab 1 3.00 2:1
10.03.2021 FK Chayka – Akron Togliatti 2 6.25 0:1

Ticket for 06.03.2021

06.03.2021 Northampton – Portsmouth 1 4.50 4:1
06.03.2021 Eupen – Leuven X 3.90 3:3
06.03.2021 Elche – Sevilla 1 7.80 2:1
06.03.2021 Red Star – Lens 1 5.80 3:2
06.03.2021 Tranmere – Crawley 2 3.80 0:1

Ticket for 03.03.2021

03.03.2021 Central SC – Santa Cruz X 6.70 1:1
03.03.2021 Eupen – Gent 1 4.10 1:0
03.03.2021 Strasbourg – Monaco 1 4.30 1:0
03.03.2021 Wolfsberger AC – LASK X 4.10 0:0
03.03.2021 Concordia – Brusque 1 5.35 2:1

Ticket for 27.02.2021

27.02.2021 Plymouth – Lincoln 1 3.70 4:3
27.02.2021 Kolding IF – Skive IK 2 3.70 2:4
27.02.2021 Swansea – Bristol City 2 5.75 1:3
27.02.2021 Carlisle – Oldham 2 4.90 1:3
27.02.2021 Cosenza – Chievo 1 3.60 1:0

Ticket for 24.02.2021

24.02.2021 Walsall – Newport 2 3.10 0:1
24.02.2021 Forest Green – Southend 2 5.60 1:3
24.02.2021 Groningen – Feyenoord X 3.90 0:0
24.02.2021 Bournemouth – Cardiff 2 4.00 1:2
24.02.2021 CS Maruinense – Sergipe X 6.50 1:1

Ticket for 20.02.2021

20.02.2021 Portsmouth – Blackpool 2 3.90 0:1
20.02.2021 Lok. Plovdiv – Ludogorets 1 4.70 3:2
20.02.2021 Freiburg – Union Berlin 2 3.40 0:1
20.02.2021 Tirol – St. Polten 2 4.30 0:1
20.02.2021 MOL Fehervar – DVTK 2 6.50 1:3

Ticket for 13.02.2021

13.02.2021 Huddersfield – Wycombe 2 5.20 2:3
13.02.2021 Eibar – Valladolid X 3.50 1:1
13.02.2021 Sparta Rotterdam – Sittard 2 4.20 1:2
13.02.2021 St. Truiden – Waregem 2 3.90 1:2
13.02.2021 La Equidad – Millonarios 1 4.40 1:0

Ticket for 09.02.2021

09.02.2021 Torquay – Wealdstone X 4.90 1:1
09.02.2021 Shrewsbury – Sunderland 1 4.10 2:1
09.02.2021 Newport – Southend 2 5.50 0:1
09.02.2021 Tranmere – Stevenage 2 3.95 0:1
09.02.2021 Hemel Hempstead – Havant & W 1 3.60 2:0

Ticket for 06.02.2021

06.02.2021 Slovan Bratislava – Senica 2 8.50 1:2
06.02.2021 Fenerbahce – Galatasaray 2 3.00 0:1
06.02.2021 Zalgiris – Riteriai 2 6.50 1:3
06.02.2021 Basaksehir – Karagumruk 2 3.60 0:1
06.02.2021 Sundsvall – Gefle  2 10.50 0:2

Ticket for 03.02.2021

03.02.2021 Varazdin – Gorica 1 4.00 2:1
03.02.2021 Aston Villa – West Ham 2 3.50 1:3
03.02.2021 Strasbourg – Brest X 3.90 2:2
03.02.2021 OC Charleroi – Waregem 1 9.70 1:0
03.02.2021 Gremio – Santos X 3.90 3:3

Ticket for 30.01.2021

30.01.2021 Sparta Prague – Bohemians 1905 2 6.90 0:1
30.01.2021 Leuven – Beerschot VA 2 3.50 0:1
30.01.2021 Everton – Newcastle 2 6.50 0:2
30.01.2021 Utrecht – Zwolle X 4.50 3:3
30.01.2021 Remo – Vila Nova FC 2 3.90 2:3

Ticket for 27.01.2021

27.01.2021 Carpi – FeralpiSalo 2 3.30 1:2
27.01.2021 Beerschot VA – Kortrijk X 3.60 0:0
27.01.2021 Burnley – Aston Villa 1 4.20 3:2
27.01.2021 AZ Alkmaar – Utrecht 2 4.30 0:1
27.01.2021 AEK Athens – Giannina 2 9.40 0:2

Ticket for 23.01.2021

23.01.2021 Millwall – Bristol City 2 3.80 0:3
23.01.2021 Lens – Nice 2 3.70 0:1
23.01.2021 Aswan SC – Zamalek X 4.90 0:0
23.01.2021 Bayer Leverkusen – Wolfsburg 2 3.90 0:1
23.01.2021 Weymouth – Hartlepool 1 8.10 1:0

Ticket for 20.01.2021

20.01.2021 Ol. Nicosia – Paralimni 2 4.50 0:1
20.01.2021 Botafogo RJ – Atletico GO 2 3.30 1:3
20.01.2021 Freiburg – Eintracht Frankfurt X 3.60 2:2
20.01.2021 Marseille – Lens 2 3.80 0:1
20.01.2021 Arminia Bielefeld – Stuttgart 1 4.50 3:0

Ticket for 16.01.2021

16.01.2021 Mouscron – Genk 1 4.90 2:0
16.01.2021 Zwolle – Sittard 2 3.80 0:2
16.01.2021 Wolves – West Brom 2 7.30 2:3
16.01.2021 Hoffenheim – Arminia Bielefeld X 4.30 0:0
16.01.2021 Middlesbrough – Birmingham 2 4.90 0:1

Zoom the image and see real proof !!!

WIN WIN WIN

Zoom the image and see real proof !!!

WIN WIN WIN

Zoom the image and see real proof !!!

WIN WIN WIN

Zoom the image and see real proof !!!

WIN WIN WIN

Zoom the image and see real proof !!!

WIN WIN WIN

Zoom the image and see real proof !!!

WIN WIN WIN

VIP OFFER: TWO FIXED MATCHES (1-2 or 2-1)

We have next two fixed matches for 17/04/2021 (Saturday) ! Matches are with around 900.00 + bonus tickets 600.00 odd! Guaranteed profit! Price contact on mail !

 Payment : Western Union, M-Pesa, Neteller, Skrill, Paypal, Ria or Bitcoin!

Whatsapp: +389 79 349 683

 Contact email: zidanetips1@gmail.com

 Real archive from our sold matches

Date Match Tip Odd Ht/Ft W/L
29.12.2018 FleetwoodPortsmouth 1/2 30.00 2:1/2:5 Win
900.00 Cambridge UtdLincoln 1/2 30.00 1:0/1:2 Win
05.01.2019 Ballinamallard – PSNI 2/1 30.00 1:2/5:2 Win
900.00 Peterhead – Clyde 1/2 30.00 1:0/1:2 Win
09.01.2019 Nova Iguacu – Resende 1/2 30.00 1:0/1:2 Win
900.00 Maritzburg Utd – Free State Stars 1/2 30.00 1:0/1:2 Win
12.01.2019 Cheltenham – Tranmere 1/2 30.00 1:0/1:3 Win
900.00 Basingstoke – Chesham 1/2 30.00 2:1/2:3 Win
16.01.2019 St. Etienne – Marseille 2/1 30.00 0:1/2:1 Win
900.00 Yeni Malatyaspor – Bodrumspor 2/1 30.00 0:2/3:2 Win
19.01.2019 Darlington – Spennymoor 1/2 30.00 1:0/1:2 Win
900.00 Colchester – Mansfield 1/2 30.00 2:0/2:3 Win
23.01.2019 Carrarese – Lucchese 2/1 30.00 0:1/3:1 Win
900.00 Mura (Slo) – Varaždin (Cro) 2/1 30.00 0:1/2:1 Win
26.01.2019 Cheltenham – Macclesfield 2/1 30.00 0:2/3:2 Win
900.00 Crewe – Colchester 2/1 30.00 0:1/2:1 Win
30.01.2019 D. Dresden – A. Bielefeld 1/2 30.00 3:1/3:4 Win
900.00 Worms (Ger) – Kaiserslautern II (Ger) 2/1 30.00 0:2/3:2 Win
02.02.2019 Brentford – Blackburn 2/1 30.00 1:2/5:2 Win
900.00 Dover – Gateshead 1/2 30.00 1:0/1:2 Win
06.02.2019 Dyn. Kiev – New England Rev. 1/2 30.00 1:0/1:3 Win
900.00 Naft Al Junoob – Al Simawa 2/1 30.00 0:1/2:1 Win
09.02.2019 Doncaster – Peterborough 2/1 30.00 0:1/3:1 Win
900.00 Curzon Ashton – Alfreton 2/1 30.00 0:2/3:2 Win
13.02.2019 Al-Ettifaq – Al-Faysaly 1/2 30.00 2:1/3:4 Win
900.00 Vålerenga (Nor) – Kongsvinger (Nor) 2/1 30.00 0:1/2:1 Win
16.02.2019 Cagliari – Parma 2/1 30.00 0:1/2:1 Win
900.00 Havant & W – Wrexham 1/2 30.00 1:0/2:3 Win
20.02.2019 SchalkeManchester City 1/2 30.00 2:1/2:3 Win
900.00 Real Salt LakeFC Dallas 1/2 30.00 1:0/1:2 Win
23.02.2019 Norwich – Bristol City 2/1 30.00 1:2/3:2 Win
900.00 Wimbledon – Charlton 1/2 30.00 1:0/1:2 Win
27.02.2019 St. Johnstone – Hibernian 1/2 30.00 1:0/1:2 Win
900.00 Hatayspor – Galatasaray 2/1 30.00 0:1/4:2 Win
02.03.2019 Manchester Utd – Southampton 2/1 30.00 0:1/3:2 Win
900.00 Yeovil – Morecambe 2/1 30.00 0:1/3:2 Win
06.03.2019 CukarickiNapredak 2/1 30.00 0:1/2:1 Win
900.00 Vojvodina – Spartak Subotica 1/2 30.00 1:0/1:2 Win
09.03.2019 Newcastle – Everton 2/1 30.00 0:2/3:2 Win
900.00 Hereford – Darlington 2/1 30.00 0:2/4:2 Win
13.03.2019 Hallescher – E. Cottbus 1/2 30.00 2:1/2:3 Win
900.00 Budaorsi – Honved 1/2 30.00 1:0/1:2 Win
16.03.2019 West Ham – Huddersfield 2/1 30.00 1:2/4:3 Win
900.00 Augsburg – Hannover 2/1 30.00 0:1/3:1 Win
20.03.2019 Poland U17 – Russia U17 1/2 30.00 2:1/2:3 Win
900.00 Llaneros – Millonarios 1/2 30.00 1:0/1:2 Win
23.03.2019 Lowestoft – Rushall 1/2 30.00 2:1/2:4 Win
900.00 St. Albans – Gloucester 1/2 30.00 1:0/1:2 Win
30.03.2019 Hearts – Aberdeen 2/1 30.00 0:1/2:1 Win
900.00 Meppen – Grossaspach 2/1 30.00 0:1/2:1 Win
03.04.2019 Eibar – Rayo Vallecano 2/1 30.00 0:1/2:1 Win
900.00 Pescara – Palermo 2/1 30.00 1:2/3:2 Win
06.04.2019 Hull – Reading 2/1 30.00 0:1/3:1 Win
900.00 RochdaleSunderland 1/2 30.00 1:0/1:2 Win
10.04.2019 Hull – Wigan 2/1 30.00 0:1/2:1 Win
900.00 Rotherham – Aston Villa 1/2 30.00 1:0/1:2 Win
13.04.2019 Cowdenbeath – Elgin City 2/1 30.00 0:1/2:1 Win
900.00 Charlton – Luton 2/1 30.00 0:1/3:1 Win
17.04.2019 Volos NFC – Apollon Larissa 1/2 30.00 1:0/1:3 Win
900.00 Al Orubah – Al-Washm 1/2 30.00 1:0/1:2 Win
20.04.2019 Warrenpoint – Dungannon 2/1 30.00 2:3/5:3 Win
900.00 Tammeka – Narva 1/2 30.00 1:0/1:2 Win
27.04.2019 Burton – Luton 2/1 30.00 0:1/2:1 Win
900.00 Bologna – Empoli 2/1 30.00 0:1/3:1 Win
01.05.2019 MariehamnKuPS 1/2 30.00 3:0/3:4 Win
900.00 HeimstettenEichstatt 2/1 30.00 0:1/3:2 Win
04.05.2019 Debrecen – Kisvarda 1/2 30.00 1:0/1:3 Win
900.00 Heidenheim – Sandhausen 1/2 30.00 1:0/2:3 Win
08.05.2019 F. Amager – Lyngby 2/1 30.00 1:3/4:3 Win
900.00 Ceske Budejovice – Chrudim 2/1 30.00 0:1/3:1 Win
11.05.2019 Augsburg – Hertha Berlin 1/2 30.00 1:0/3:4 Win
900.00 Gnistan – KaaPo 1/2 30.00 1:0/1:2 Win
15.05.2019 Voluntari – Concordia 2/1 30.00 0:1/2:1 Win
900.00 Celje – Maribor 1/2 30.00 1:0/1:3 Win
18.05.2019 Rudar – Olimpija Ljubljana 1/2 30.00 1:0/1:2 Win
900.00 Giresunspor – Altinordu 2/1 30.00 0:1/3:1 Win
22.05.2019 Kashima (Jpn) – Shandong Luneng (Chn) 2/1 30.00 0:1/2:1 Win
900.00 Melbo – Tromso 1/2 30.00 1:0/1:2 Win
25.05.2019 Sparta Rotterdam – Graafschap 1/2 30.00 1:0/1:2 Win
900.00 Helsingor – Lyngby 1/2 30.00 1:0/1:2 Win
29.05.2019 FC JuniorsAmstetten 1/2 30.00 1:0/1:5 Win
900.00 Gauthiod – Stenungsunds 1/2 30.00 1:0/1:2 Win
01.06.2019 Odder – BK Frem 1/2 30.00 1:0/1:3 Win
900.00 England U20 – Japan U22 1/2 30.00 1:0/1:2 Win
08.06.2019 Estonia – Northern Ireland 1/2 30.00 1:0/1:2 Win
900.00 Limerick – Galway 2/1 30.00 0:1/2:1 Win
11.06.2019 Pakistan – Cambodia 1/2 30.00 1:0/1:2 Win
900.00 Italy – Bosnia & Herzegovina 2/1 30.00 0:1/2:1 Win
15.06.2019 Bronshoj – AB Copenhagen 1/2 30.00 2:1/2:3 Win
900.00 Kalju – Narva 2/1 30.00 1:2/3:2 Win
19.06.2019 Baerum Sportsklubb – Valerenga 2/1 30.00 1:2/5:3 Win
900.00 TPV – Haka 1/2 30.00 1:0/1:3 Win
22.06.2019 FloroGrorud 1/2 30.00 1:0/1:2 Win
900.00 LyseklosterVestfossen 2/1 30.00 0:1/4:1 Win
26.06.2019 Uerdingen – Oleksandriya 2/1 30.00 1:2/4:3 Win
900.00 Opava – GKS Jastrzebie 1/2 30.00 1:0/1:2 Win
29.06.2019 Clermont (Fra) – Orleans (Fra) 1/2 30.00 1:0/1:2 Win
900.00 Astra (Rou) – Cukaricki (Srb) 1/2 30.00 1:0/1:2 Win
03.07.2019 Hansa Rostock – Rodinghausen 2/1 30.00 0:1/2:1 Win
900.00 Lotte (Ger) – BSV Rehden (Ger) 2/1 30.00 0:1/2:1 Win
06.07.2019 Nigeria – Cameroon 2/1 30.00 1:2/3:2 Win
900.00 MuSa – Haka 1/2 30.00 1:0/1:5 Win
10.07.2019 Jaszberenyi (Hun) – Kecskemeti TE (Hun) 1/2 30.00 1:0/1:2 Win
900.00 Grazer (Aut) – Hannover (Ger) 1/2 30.00 1:0/1:3 Win
13.07.2019 Ostrava – Liberec 1/2 30.00 1:0/1:2 Win
900.00 Grays (Eng) – Dartford (Eng) 1/2 30.00 1:0/1:2 Win
17.07.2019 Piast Gliwice (Pol) – BATE (Blr) 1/2 30.00 1:0/1:2 Win
900.00 York (Eng) – Hartlepool (Eng) 2/1 30.00 0:1/2:1 Win
20.07.2019 Senica – Trencin 2/1 30.00 0:1/3:1 Win
900.00 Notts Co (Eng) – Walsall (Eng) 2/1 30.00 0:1/2:1 Win
24.07.2019 Albacete (Esp) – Getafe B (Esp) 2/1 30.00 0:1/2:1 Win
900.00 Olot (Esp) – Al-Sadd (Qat) 2/1 30.00 0:1/2:1 Win
27.07.2019 Airdrieonians – Hamilton 1/2 30.00 2:0/2:3 Win
900.00 Le Mans – Lens 1/2 30.00 1:0/1:2 Win
31.07.2019 Atl. Madrid B (Esp) – Valladolid B (Esp) 1/2 30.00 2:0/2:3 Win
900.00 Chemnitzer – Meppen 1/2 30.00 1:0/2:4 Win
03.08.2019 Wrexham – Barrow 2/1 30.00 0:1/2:1 Win
900.00 Swansea – Hull 2/1 30.00 0:1/2:1 Win
07.08.2019 Vac – Csakvari 1/2 30.00 1:0/1:2 Win
900.00 Llagostera (Esp – Sabadell (Esp) 1/2 30.00 1:0/1:2 Win
10.08.2019 Septemvri Sofia – Litex Lovech 2/1 30.00 1:2/4:3 Win
900.00 Dover – Wrexham 2/1 30.00 0:1/2:1 Win
13.08.2019 Blackburn – Oldham 2/1 30.00 0:1/3:2 Win
900.00 Stevenage – Southend 1/2 30.00 1:0/1:2 Win
17.08.2019 Sao Bento – Parana 2/1 30.00 0:1/2:1 Win
900.00 Luton – West Brom 1/2 30.00 1:0/1:2 Win
21.08.2019 Kongsvinger – Strommen 2/1 30.00 1:2/3:2 Win
900.00 Trollhattan – Halmstad 1/2 30.00 1:0/1:2 Win
24.08.2019 Hoffenheim – Werder Bremen 2/1 30.00 0:1/3:2 Win
900.00 QPR – Wigan 2/1 30.00 0:1/3:1 Win
28.08.2019 Pisek – Teplice 1/2 30.00 1:0/1:3 Win
900.00 Lubeck – Wolfsburg II 1/2 30.00 1:0/1:3 Win
31.08.2019 Freiburg – FC Koln 1/2 30.00 1:0/1:2 Win
900.00 Sheffield Wed – QPR 1/2 30.00 1:0/1:2 Win
04.09.2019 U. Magdalena – Millonarios 2/1 30.00 0:1/2:1 Win
900.00 Newport Co – West Ham U21 1/2 30.00 4:1/4:5 Win
07.09.2019 Braintree – Dulwich Hamlet 2/1 30.00 0:1/2:1 Win
900.00 Torquay – Harrogate 2/1 30.00 0:1/4:2 Win
10.09.2019 Sweden U21 – Ireland U21 1/2 30.00 1:0/1:3 Win
900.00 Jordan – Paraguay 1/2 30.00 2:0/2:4 Win
14.09.2019 Londrina – Coritiba 2/1 30.00 0:1/2:1 Win
900.00 AC Kajaani – KTP 1/2 30.00 3:2/4:5 Win
18.09.2019 Paris SG U19 – Real Madrid U19 1/2 30.00 1:0/1:2 Win
900.00 Duna Aszfalt – Budafoki 1/2 30.00 2:1/2:3 Win
21.09.2019 SalPa – GrIFK 1/2 30.00 1:0/1:2 Win
900.00 Hillerod – Hellerup 2/1 30.00 0:1/3:1 Win
25.09.2019 Siroki Brijeg – Mladost DK 2/1 30.00 1:2/3:2 Win
900.00 Yenisey – Zenit 1/2 30.00 1:0/1:2 Win
28.09.2019 Ballymena – Cliftonville 2/1 30.00 0:1/2:1 Win
900.00 Dumbarton – Clyde 1/2 30.00 1:0/1:2 Win
02.10.2019 Barcelona – Inter 2/1 30.00 0:1/2:1 Win
900.00 Rennes U19 – Brodarac U19 2/1 30.00 0:1/2:1 Win
05.10.2019 Port Vale – Morecambe  2/1 30.00 0:1/3:1 Win
900.00 Livorno – Chievo 1/2 30.00 3:1/3:4 Win
09.10.2019 Finland U16 W – Sweden U16 W 2/1 30.00 0:1/4:1 Win
900.00 Proleter – Javor 2/1 30.00 0:1/2:1 Win
12.10.2019 Crawley – Colchester 2/1 30.00 0:1/2:1 Win
900.00 Leyton Orient – Walsall 2/1 30.00 0:1/3:1 Win
15.10.2019 Deportivo Paraguayo – Claypole 1/2 30.00 1:0/1:2 Win
900.00 Cobresal – Palestino 2/1 30.00 0:1/3:2 Win
19.10.2019 Brentford – Millwall 2/1 30.00 0:1/3:2 Win
900.00 Crewe – Swindon 2/1 30.00 0:1/3:1 Win
23.10.2019 Coventry – Fleetwood 2/1 30.00 0:1/2:1 Win
900.00 RB Leipzig – Zenit 2/1 30.00 0:1/2:1 Win
26.10.2019 Preston – Blackburn 2/1 30.00 0:2/3:2 Win
900.00 Forfar – Airdrieonians 1/2 30.00 1:0/1:4 Win
30.10.2019 Sassuolo – Fiorentina 1/2 30.00 1:0/1:2 Win
900.00 Cagliari – Bologna 2/1 30.00 0:1/3:2 Win
02.11.2019 Barnet – Chorley 2/1 30.00 0:1/2:1 Win
900.00 AFC Telford – Boston Utd 1/2 30.00 1:0/1:3 Win
06.11.2019 River Plate – Progreso 1/2 30.00 1:0/1:2 Win
900.00 AB Copenhagen – Esbjerg 1/2 30.00 1:0/1:2 Win
09.11.2019 Maidenhead – Rotherham 1/2 30.00 1:0/1:3 Win
900.00 Ham-Kam – Nest-Sotra 2/1 30.00 0:1/3:1 Win
13.11.2019 U. Cluj – Concordia 2/1 30.00 0:1/2:1 Win
900.00 Dramas (Gre) – PAOK (Gre)  1/2 30.00 1:0/1:3 Win
16.11.2019 Port Vale – Carlisle 2/1 30.00 0:1/2:1 Win
900.00 Havant & W – Bath 2/1 30.00 0:1/2:1 Win
19.11.2019 Libya – Tanzania 2/1 30.00 0:1/2:1 Win
900.00 Scotland – Kazakhstan 2/1 30.00 0:1/3:1 Win
23.11.2019 Stoke – Wigan 2/1 30.00 0:1/2:1 Win
900.00 MK Dons – Rotherham 1/2 30.00 2:0/2:3 Win
27.11.2019 Iztapa – Sanarate 2/1 30.00 0:1/4:1 Win
900.00 FeralpiSalo – Pro Patria  2/1 30.00 1:2/3:2 Win
30.11.2019 Wigan – Reading 1/2 30.00 1:0/1:3 Win
900.00 Chester – Bradford PA 2/1 30.00 0:1/2:1 Win
04.12.2019 Kortrijk – Eupen 2/1 30.00 0:1/2:1 Win
900.00 Haladas – Budafoki 2/1 30.00 0:1/2:1 Win
07.12.2019 Sheffield Wed – Brentford 2/1 30.00 0:1/2:1 Win
900.00 Woking – Hartlepool 2/1 30.00 0:1/2:1 Win
11.12.2019 Guastatoya – Comunicaciones 2/1 30.00 0:1/3:1 Win
900.00 Pontedera – Lecco 2/1 30.00 0:1/4:1 Win
14.12.2019 AFC Wimbledon – Doncaster 2/1 30.00 0:1/2:1 Win
900.00 Harrogate – Hartlepool 2/1 30.00 0:2/3:2 Win
18.12.2019 Eintracht Frankfurt – FC Koln 1/2 30.00 2:1/2:4 Win
900.00 EG El Palmar CF – Getafe 1/2 30.00 1:0/1:2 Win
21.12.2019 Morecambe – Newport Co 2/1 30.00 0:1/2:1 Win
900.00 Norwich – Wolves 1/2 30.00 1:0/1:2 Win
26.12.2019 Tottenham – Brighton 2/1 30.00 0:1/2:1 Win
900.00 Bristol Rovers – AFC Wimbledon 1/2 30.00 1:0/1:2 Win
28.12.2019 Forfar Athletic – Montrose  1/2 30.00 2:1/2:3 Win
900.00 Llandudno – Colwyn Bay 1/2 30.00 2:1/2:3 Win
01.01.2020 Millwall – Luton 2/1 30.00 0:1/3:1 Win
900.00 Lincoln – Peterborough 2/1 30.00 0:1/2:1 Win
04.01.2020 Oxford Utd – Hartlepool 2/1 30.00 0:1/4:1 Win
900.00 Banbury – Redditch 2/1 30.00 1:2/4:2 Win
08.01.2020 Hoffenheim (Ger) – Feyenoord (Ned) 1/2 30.00 1:0/2:3 Win
900.00 APOEL – Ol. Nicosia 2/1 30.00 0:1/4:2 Win
11.01.2020 Mansfield – Forest Green 1/2 30.00 2:1/3:4 Win
900.00 Scunthorpe – Newport Co 1/2 30.00 1:0/1:2 Win
15.01.2020 AEL Limassol – Alki Oroklini 2/1 30.00 0:1/2:1 Win
900.00 Zamora – Hermanos Colmenares 2/1 30.00 0:1/2:1 Win
18.01.2020 Southampton – Wolves 1/2 30.00 2:0/2:3 Win
900.00 Tranmere – Ipswich 1/2 30.00 1:0/1:2 Win
22.01.2020 Din. Bucuresti (Rou) – Krasnodar (Rus) 1/2 30.00 1:0/1:2 Win
900.00 Charlton U23 – Crystal Palace U23 2/1 30.00 0:1/2:1 Win
25.01.2020 Crawley – Grimsby 2/1 30.00 1:2/3:2 Win
900.00 Macclesfield – Forest Green 2/1 30.00 0:1/2:1 Win
29.01.2020 CE Forca E Luz – Globo 2/1 30.00 0:3/4:3 Win
900.00 Crystal Palace U23 – Cardiff U23 1/2 30.00 1:0/2:3 Win
01.02.2020 Grantham – Buxton 1/2 30.00 1:0/1:3 Win
900.00 Brechin – Elgin City 1/2 30.00 1:0/1:2 Win
05.02.2020 Vitosha Bistritsa (Bul) – SCM Gloria (Rou) 1/2 30.00 1:0/1:2 Win
900.00 Floridsdorf (Aut) – Absdorf (Aut) 2/1 30.00 0:1/6:1 Win
08.02.2020 Guiseley – AFC Telford 1/2 30.00 1:0/1:2 Win
900.00 Fiorentina – Atalanta 1/2 30.00 1:0/1:2 Win
12.02.2020 Yupanqui – Juventud Unida S. M. 1/2 30.00 1:0/1:2 Win
900.00 Zaragoza U19 – Lyon U19 1/2 30.00 1:0/1:3 Win
15.02.2020 Bristol Rovers – Blackpool 2/1 30.00 0:1/2:1 Win
900.00 Cambridge Utd – Bradford City 2/1 30.00 0:1/2:1 Win
19.02.2020 Istra 1961 (Cro) – Dob (Slo) 2/1 30.00 0:2/3:2 Win
900.00 Drita (Mkd) – Trepca Mitrovice (Kos) 2/1 30.00 0:1/4:2 Win
22.02.2020 Preston – Hull 2/1 30.00 0:1/2:1 Win
900.00 Havant & W – St. Albans 1/2 30.00 1:0/1:2 Win
29.02.2020 Chippenham – St. Albans 2/1 30.00 0:1/2:1 Win
900.00 Benevento – Spezia  2/1 30.00 0:1/3:1 Win
04.03.2020 Bayer Leverkusen – Union Berlin 2/1 30.00 0:1/3:1 Win
900.00 Votuporanguense – Audax-SP 1/2 30.00 1:0/1:2 Win
07.03.2020 Shrewsbury – Oxford Utd 1/2 30.00 2:1/2:3 Win
900.00 Preston – QPR 1/2 30.00 1:0/1:3 Win
11.03.2020 Afturelding – Akranes 1/2 30.00 1:0/1:2 Win
900.00 Al Jabalain – Al Ansar 1/2 30.00 2:0/2:3 Win
14.03.2020 Bani Yas – Ittihad Kalba 2/1 30.00 0:1/2:1 Win
900.00 Dorking – Havant & W  1/2 30.00 1:0/1:2 Win
21.03.2020 no HT-FT match        
odd:  no HT-FT match        
28.03.2020 no HT-FT match        
odd:  no HT-FT match        
04.04.2020 no HT-FT match        
odd:  no HT-FT match        
11.04.2020 no HT-FT match        
odd:  no HT-FT match        
18.04.2020 no HT-FT match        
odd:  no HT-FT match        
25.04.2020 Faizkand – Istaravshan 2/1 30.00 0:1/2:1 Win
900.00 Baranovici – Brest Malorita 1/2 30.00 1:0/2:3 Win
02.05.2020 no HT-FT match        
odd:  no HT-FT match        
09.05.2020 no HT-FT match        
odd:  no HT-FT match        
16.05.2020 Opava (Cze) – Vitkovice (Cze) 2/1 30.00 0:1/4:1 Win
570.00 Trinec (Cze) – Karvina (Cze) 1/X 19.00 2:0/2:2 Win
23.05.2020 Kronon Stolbtsy – Brest Malorita 1/2 30.00 1:0/2:3 Win
900.00 Jeju Utd – Daejeon 1/2 30.00 1:0/2:3 Win
30.05.2020 Belshina – Slavia Mozyr 1/2 30.00 2:1/2:3 Win
900.00 Kuressaare – Narva 2/1 30.00 1:2/3:2 Win
06.06.2020 Honka – Lahti 1/2 30.00 1:0/1:2 Win
900.00 Mannheim – Viktoria Koln 2/1 30.00 0:1/2:1 Win
10.06.2020 Wolfsberger AC – Hartberg 1/2 30.00 2:1/2:4 Win
900.00 Amstetten – Wacker Innsbruck 1/2 30.00 2:0/2:3 Win
13.06.2020 Throttur – Vestri  2/1 30.00 0:1/3:1 Win
900.00 Racing Santander – Lugo 1/2 30.00 1:0/1:2 Win
17.06.2020 EPS – Kultsu 2/1 30.00 0:1/2:1 Win
900.00 Ferreira – Belenenses 2/1 30.00 0:1/2:1 Win
20.06.2020 Haukar – Fjardabyggd 2/1 30.00 0:1/2:1 Win
900.00 Sagadam U21 – Ahal U21 1/2 30.00 1:0/2:3 Win
24.06.2020 AS Roma – Sampdoria 2/1 30.00 0:1/2:1 Win
900.00 Grossaspach – Meppen 1/2 30.00 1:0/1:2 Win
27.06.2020 Zwickau – Braunschweig 2/1 30.00 0:1/3:2 Win
900.00 Volsungur – Haukar 1/2 30.00 2:1/2:4 Win
01.07.2020 B.93 – Vejgaard 1/2 30.00 1:0/1:3 Win
900.00 Ilves – Mariehamn 2/1 30.00 0:1/4:3 Win
04.07.2020 Levski Sofia – Slavia Sofia 1/2 30.00 1:0/1:2 Win
900.00 Jihlava – Prostejov 2/1 30.00 0:1/3:2 Win
08.07.2020 Torino – Brescia 2/1 30.00 0:1/3:1 Win
900.00 Horsens – Hobro 2/1 30.00 1:2/3:2 Win
11.07.2020 Olsztyn – Legnica 1/2 30.00 1:0/1:2 Win
900.00 Leczna – Pogon Siedlce 1/2 30.00 1:0/2:3 Win
15.07.2020 AC Milan – Parma 2/1 30.00 0:1/3:1 Win
900.00 Bodo/Glimt – Kristiansund 2/1 30.00 0:1/2:1 Win
18.07.2020 Leiknir – Magni 2/1 30.00 0:1/2:1 Win
900.00 Bryne – Flekkeroy 2/1 30.00 0:1/3:1 Win
22.07.2020 Volsungur – Fjallabyggd 1/2 30.00 1:0/2:3 Win
900.00 FK Rostov – Zenit 1/2 30.00 1:0/1:2 Win
29.07.2020 Aalesund – Start 2/1 30.00 1:2/3:2 Win
900.00 Kristiansund – Sandefjord 2/1 30.00 0:1/3:1 Win
01.08.2020  Keski Uusimaa – PK-35 1/2 30.00 1:0/2:3 Win
900.00 Polonia Swidnica – Ruch Chorzow 1/2 30.00 2:0/2:4  Win
05.08.2020 Stal Mielec – Wisla 1/2 30.00 1:0/2:4 Win
900.00 Gent – Seraing 2/1 30.00 0:1/2:1 Win
08.08.2020 Trollhattan – Lunds 2/1 30.00 0:1/2:1 Win
900.00 Krasnodar II – F. Voronezh 2/1 30.00 0:1/3:1 Win
12.08.2020 Djurgarden – Mjallby 2/1 30.00 0:1/2:1 Win
900.00 Oskarshamns – Motala 1/2 30.00 1:0/1:2 Win
15.08.2020 Rijeka – Sibenik 2/1 30.00 0:1/2:1 Win
900.00 Holstein Kiel – St. Pauli  2/1 30.00 0:1/2:1 Win
19.08.2020 Haukar – Volsungur 2/1 30.00 0:1/2:1 Win
900.00 Al-Raed – Al-Shabab 2/1 30.00 0:1/2:1 Win
22.08.2020 Slaven Belupo – Gorica 1/2 30.00 1:0/1:2 Win
900.00 Valerenga – Sandefjord 2/1 30.00 0:1/2:1 Win
26.08.2020 Celje – Molde 1/2 30.00 1:0/1:2 Win
900.00 Mushuc Runa – U. Catolica 1/2 30.00 1:0/1:2 Win
29.08.2020 Arda – Botev Plovdiv 2/1 30.00 1:2/3:2 Win
900.00 Aswan SC – Pyramids 1/2 30.00 1:0/1:2 Win
02.09.2020 Znojmo – Frydek-Mistek 1/2 30.00 2:1/3:4 Win
900.00 Otterup – Middelfart 1/2 30.00 2:1/2:3 Win
05.09.2020 Forest Green – Leyton Orient 1/2 30.00 1:0/1:2 Win
900.00 Liverpool – Blackpool 2/1 30.00 1:2/7:2 Win
09.09.2020 Racing Santander – R. Sociedad B. 2/1 30.00 0:1/2:1 Win
900.00 Fuenlabrada – Getafe 1/2 30.00 1:0/1:2 Win
12.09.2020 Cheltenham – Morecambe 1/2 30.00 1:0/1:2 Win
900.00 Livingston – Hamilton 1/2 30.00 1:0/1:2 Win
16.09.2020 Zapresic – Orijent 1/2 30.00 1:0/1:2 Win
900.00 Sheffield Wed U23 – Wigan U23 1/2 30.00 2:1/2:3 Win
19.09.2020 Karlstad – IFK Berga 2/1 30.00 1:2/4:3 Win
900.00 Hansa Rostock – Duisburg 2/1 30.00 0:1/3:1 Win
23.09.2020 Team TG FF – Taby 2/1 30.00 0:1/2:1 Win
900.00 Nykopings – Haninge 1/2 30.00 2:1/2:6 Win
26.09.2020 Southend – Morecambe 2/1 30.00 0:1/2:1 Win
900.00 Bradford City – Stevenage 2/1 30.00 0:1/2:1 Win
03.10.2020 Woking – Solihull Moors  2/1 30.00 0:1/2:1 Win
900.00 Peterborough – Swindon 2/1 30.00 0:1/3:1 Win
07.10.2020 Schwaz – SV Worgl 2/1 30.00 0:1/2:1 Win
900.00 Audax RJ – Olaria 2/1 30.00 0:1/2:1 Win
10.10.2020 Bromley – Torquay 1/2 30.00 1:0/1:2 Win
900.00 Jerv – Raufoss  2/1 30.00 1:2/4:2 Win
14.10.2020 Slovakia – Israel 1/2 30.00 2:0/2:3 Win
900.00 Independente – Acreano 2/1 30.00 0:1/4:1 Win
17.10.2020 Midtjylland – Odense 2/1 30.00 0:1/3:1 Win
900.00 Rotherham – Norwich 1/2 30.00 1:0/1:2 Win
21.10.2020 Independente – Vilhenense 2/1 30.00 0:1/2:1 Win
900.00 Haninge – Orebro 1/2 30.00 1:0/1:2 Win
24.10.2020 Mainz – B. Monchengladbach 1/2 30.00 2:1/2:3 Win
900.00 Huddersfield – Preston  1/2 30.00 1:0/1:2 Win
28.10.2020 AFC Fylde – Kettering 2/1 30.00 0:1/3:2 Win
900.00 Melipilla – Copiapo 1/2 30.00 1:0/1:2 Win
31.10.2020 King’s Lynn – Woking 2/1 30.00 1:2/3:2 Win
900.00 Stockport – Weymouth 1/2 30.00 1:0/1:2 Win
04.11.2020 Birmingham – Wycombe 1/2 30.00 1:0/1:2 Win
900.00 Sevilla – Krasnodar 2/1 30.00 1:2/3:2 Win
07.11.2020 Venlo – Heracles 2/1 30.00 0:1/3:2 Win
900.00 Gillingham – Woking 2/1 30.00 0:1/3:2 Win
11.11.2020 Belgium – Switzerland 2/1 30.00 0:1/2:1 Win
900.00 Carlos Stein – Cienciano 2/1 30.00 0:1/3:2 Win
14.11.2020 Chippenham – Ebbsfleet 1/2 30.00 1:0/1:2 Win
900.00 Chesterfield – Maidenhead 1/2 30.00 1:0/1:2 Win
18.11.2020 Poland – Netherlands 1/2 30.00 1:0/1:2 Win
900.00 Santos FC – Union Comercio 1/2 30.00 2:0/3:4 Win
21.11.2020 Bournemouth – Reading 2/1 30.00 0:2/4:2 Win
900.00 Hillerod – Vanlose 1/2 30.00 1:0/1:4 Win
25.11.2020 Lisen – Vysehrad 2/1 30.00 0/1:4:2 Win
900.00 Fluminense U20 – Vasco U20 2/1 30.00 0:1/2:1 Win
28.11.2020 AFC Fylde – Boston Utd 2/1 30.00 0:1/2:1 Win
900.00 Oxford Utd – Swindon 1/2 30.00 1:0/1:2 Win
02.12.2020 Zrinjski – Zeljeznicar 1/2 30.00 1:0/1:2 Win
900.00 Cruzeiro U20 – Ceara U20 1/2 30.00 1:0/2:3 Win
05.12.2020 Plymouth – Ipswich 1/2 30.00 1:0/1:2 Win
900.00 Frosinone – Chievo 2/1 30.00 1:2/3:2 Win
09.12.2020 Palestino – Union La Calera 2/1 30.00 0:1/3:1 Win
900.00 Akademija Pandev – Borec 2/1 30.00 0:1/2:1 Win
12.12.2020 Charlton – AFC Wimbledon 2/1 30.00 1:2/5:2 Win
900.00 Crewe – Northampton 2/1 30.00 0:1/2:1 Win
16.12.2020 Reims – Nantes 2/1 30.00 0:1/3:2 Win
900.00 Rennes – Marseille 2/1 30.00 0:1/2:1 Win
19.12.2020 Newport – Oldham  1/2 30.00 2:1/2:4 Win
900.00 Walsall – Port Vale 2/1 30.00 0:2/4:3 Win
23.12.2020 Sudtirol – Triestina 1/2 30.00 1:0/1:2 Win
900.00 Chavelines – Alianza Atl. 1/2 30.00 1:0/2:4 Win
26.12.2020 Leuven – Oostende 1/2 30.00 1:0/1:2 Win
900.00 Cardiff – Brentford 1/2 30.00 1:0/2:3 Win
30.12.2020 Spal – Brescia 1/2 30.00 1:0/2:3 Win
900.00 AC Colina – San Antonio Unido 2/1 30.00 0:1/2:1 Win
02.01.2021 Chelmsford – Braintree 2/1 30.00 0:2/4:2 Win
900.00 Dungannon – Cliftonville 1/2 30.00 1:0/1:2 Win
06.01.2021 Jeddah – Al-Kawkab 2/1 30.00 0:1/2:1 Win
900.00 Gor Mahia (Ken) – CR Belouizdad (Alg) 1/2 30.00 1:0/1:2 Win
09.01.2021 Cambridge Utd – Harrogate 2/1 30.00 0:1/2:1 Win
900.00 Gloucester – Kidderminster 2/1 30.00 1:2/3:2 Win
13.01.2021 Nyiregyhaza (Hun) – Paks (Hun) 2/1 30.00 1:2/4:3 Win
900.00 HSL Derthona – Lavagnese 1/2 30.00 1:0/1:2 Win
16.01.2021 Chorley – Farsley 2/1 30.00 1:2/3:2 Win
900.00 Oxford City – Haringey 2/1 30.00 1:2/4:2 Win
20.01.2021 Duisburg – Magdeburg  1/2 30.00 1:0/1:2 Win
1200.00 Ulm – Giessen 1/2 40.00 1:0/2:3 Win
23.01.2021 Dag & Red – King’s Lynn 2/1 30.00 0:2/3:2 Win
900.00 Novara – Pro Vercelli 1/2 30.00 1:0/1:2 Win
27.01.2021 Burnley – Aston Villa 2/1 35.00 0:1/3:2 Win
945.00 Legia – Stomil Olsztyn 2/1 27.00 0:1/3:1 Win
30.01.2021 Oldham – Salford 2/1 35.00 0:1/2:1 Win
1330.00 Boreham Wood – Eastleigh 1/2 38.00 1:0/1:2 Win
03.02.2021 Varazdin – Gorica 2/1 35.00 0:1/2:1 Win
1050.00 Aalborg – FC Copenhagen  1/2 30.00 2:0/2:3 Win
06.02.2021 Exeter – Bradford City 2/1 30.00 1:2/3:2 Win
900.00 Brackley Town – Chorley 2/1 30.00 0:1/2:1 Win
09.02.2021 Shrewsbury – Sunderland 2/1 40.00 0:1/2:1 Win
1200.00 Fleetwood – Doncaster 2/1 30.00 0:1/3:1 Win
13.02.2021 Huddersfield – Wycombe 1/2 45.00 2:1/2:3 Win
1350.00+ Sandhausen – Karlsruher 1/2 30.00 2:0/2:3 Win
17.02.2021 QPR – Brentford 2/1 40.00 0:1/2:1 Win
1200.00 Olbia – Piacenza 1/2 30.00 1:0/2:3 Win
20.02.2021 Austria Vienna Altach 2/1 30.00 0:1/5:1 Win
1050.00 Rovaniemi – KPV Kokkola 2/1 35.00 0:1/2:1 Win
24.02.2021 Alagoinhas – Vitoria 1/2 30.00 1:0/1:2 Win
900.00 Vera Cruz – Sport Recife 1/2 30.00 1:0/1:3 Win
27.02.2021 Birmingham – QPR 2/1 35.00 0:1/2:1 Win
1225.00 Luton – Sheffield Wed 2/1 35.00 0:2/3:2 Win
03.03.2021 Lecco – Renate 2/1 30.00 0:1/2:1 Win
1140.00 U. Cluj – Viitorul Tg. Jiu 1/2 38.00 1:0/1:3 Win
06.03.2021 Wealdstone – FC Halifax 1/2 35.00 1:0/1:2 Win
1225.00 Hansa Rostock – Kaiserslautern 2/1 35.00 0:1/2:1 Win
10.03.2021 Dynamo Moscow U19 Sochi U19 1/2 45.00 2:1/2:3 Win
1350.00 Pacajus – Caucaia 1/2 30.00 2:1/2:4 Win
13.03.2021 Bournemouth – Barnsley 1/2 40.00 2:1/2:3 Win
1200.00 Swindon – Gillingham 1/2 30.00 1:0/1:3 Win
17.03.2021 Torino – Sassuolo 2/1 35.00 0:2/3:2 Win
1225.00 QPR – Millwall  2/1 35.00 0:2/3:2 Win
20.03.2021 Crotone – Bologna 1/2 35.00 2:0/2:3 Win
1155.00 Bolton – Walsall 2/1 33.00 0:1/2:1 Win
24.03.2021 Lampang – Chiangmai Utd 2/1 65.00 0:1/3:1 Win
2275.00 El Paso (Usa) – Juarez (Mex) 1/2 35.00 1:0/1:2 Win
27.03.2021 King’s Lynn – Eastleigh 2/1 35.00 0:1/2:1 Win
1225.00 Lippstadt – Ahlen 1/2 35.00 1:0/1:3 Win
31.03.2021 Switzerland – Finland 2/1 35.00 1:2/3:2 Win
1225.00 Al-Nahda – Ohod 1/2 35.00 2:0/2:3 Win
03.04.2021 Wuppertaler – Homberg 2/1 30.00 0:1/2:1 Win
1200.00 Trollhattan – Lindome 1/2 40.00 1:0/1:2 Win
07.04.2021 Monopoli – Palermo 2/1 70.00 0:1/2:1 Win
2100.00+ Vevey – Servette 1/2 30.00 1:0/2:4 Win
10.04.2021 Wycombe – Luton 1/2 35.00 1:0/1:3 Win
2100.00 Pau FC – Clermont 2/1 60.00 0:1/2:1 Win
14.04.2021 Vikingur – Klaksvik 1/2 30.00 1:0/1:2 Win
1050.00 Jableh – Harjaleh 1/2 35.00 2:1/2:3 Win
17.04.2021 ??? – ??? ?? ?? ??/?? ??
1000.00+ ??? – ??? ?? ?? ??/?? ??

Whatsapp Evidence (10.04.2021)

WIN WIN WIN WIN WIN WIN

Whatsapp Evidence (27.03.2021)

WIN WIN WIN WIN WIN WIN

Whatsapp Evidence (20.03.2021)

WIN WIN WIN WIN WIN WIN

Click the image and see our real proof !!!

WIN WIN WIN

Click the image and see our real proof !!!

WIN WIN WIN

Click the image and see our real proof !!!

WIN WIN WIN

Click the image and see our real proof !!!

WIN WIN WIN

Click the image and see our real proof !!!

WIN WIN WIN

Click the image and see our real proof !!!

WIN WIN WIN

Contact e-mail: zidanetips1@gmail.com

Whatsapp: +389 79 349 683

New New New – Vip Subscription – Offer

Every day two matches, every day new profit . If you want fast money this is offer for you by zidane-1×2 team!

Every day two matches 20.00odd – 60.00odd

1  week double subscription

2 weeks double subscription

1 month double subscription

2 months double subscription

and much bonuses and fixed matches with big odds every day !

 The matches will be from sure source and we will send you the tips with deep, useful informations and will send you via mail or phone. Odd for matches will be around 20.00 – 60.00. Winning rate is 100% and the profit is reliable, don't miss this offer. Our archives are real and all matches goes to our archive. Payment methods: Western Union , M-Pesa, Ria, Skrill , Paypal , Neteller…

Price: contact on e-mail !

 Contact email: zidanetips1@gmail.com

Whatsapp: +389 79 349 683

Archive for April 2021

Date Match Tip Odd Ft W/L
01.04.2021 Concordia – Metropolitano 2 5.00 1:3 Win
odd: 22.50 Haka – TPS 2 4.50 0:1 Win
02.04.2021 Lafnitz – SK Rapid Vienna (Am) 2 4.20 0:1 Win
odd: 58.80 Bastia – Avranches 2 14.00 0:1 Win
03.04.2021 Ayr – Clyde 2 8.50 0:1 Win
odd: 35.70 Livingston – Raith X 4.20 1:1 Win
04.04.2021 Panathinaikos – PAOK 1 4.40 3:0 Win
odd: 24.20 Antigua – Malacateco 2 5.50 1:2 Win
05.04.2021 Horn – Dornbirn 2 4.20 2:4 Win
odd: 25.62 Naestved – Roskilde 2 6.10 2:3 Win
06.04.2021 Stirling – Albion Rovers X 5.00 1:1 Win
odd: 23.00 Airdrieonians – Falkirk 1 4.60 2:1 Win
07.04.2021 Dorogi – Debrecen 1 4.60 2:0 Win
odd: 25.30 Neftekhimik – Shinnik Yaroslavl X 5.50 1:1 Win
08.04.2021 Ararat-Armenia – Van 2 6.20 2:3 Win
odd: 28.52 Remo – Independente X 4.60 2:2 Win
09.04.2021` Energetik-BGU – Sputnik 2 6.80 0:1 Win
odd: 26.52 Odense – Vejle 2 3.90 0:1 Win
10.04.2021 Sunderland – Charlton 2 4.50 1:2 Win
odd: 24.75 Pau FC – Clermont 1 5.50 2:1 Win
11.04.2021 Villarreal – Osasuna 2 5.90 1:2 Win
odd: 28.91 Pyramids – Raja Casablanca 2 4.90 0:3 Win
12.04.2021 Viitorul Constanta – Gaz Metan M. 2 4.00 0:2 Win
odd: 22.00 M. Nazareth – Hapoel Petah Tikva 2 5.50 0:1 Win
13.04.2021 Wigan – Sunderland 1 4.70 2:1 Win
odd: 21.62 FK Pardubice – Slovacko 1 4.60 3:1 Win
14.04.2021 Shkupi – Belasica 2 16.50 0:1 Win
odd: 107.25 Grbalj – Drezga 2 6.50 1:2 Win
15.04.2021          
odd:          
16.04.2021          
odd:          
17.04.2021          
odd:          
18.04.2021          
odd:          
19.04.2021          
odd:          
20.04.2021          
odd:          
21.04.2021          
odd:          
22.04.2021          
odd:          
23.04.2021          
odd:          
24.04.2021          
odd:          
25.04.2021          
odd:          
26.04.2021          
odd:          
27.04.2021          
odd:          
28.04.2021          
odd:          
29.04.2021          
odd:          
30.04.2021          
odd:          

Archive for March 2021

Date Match Tip Odd Ft W/L
01.03.2021 GAIS – Malmo FF 1 9.90 1:0 Win
odd: 31.68 Moreirense – Belenenses X 3.20 2:2 Win
02.03.2021 Cittadella – Pescara 2 5.40 0:1 Win
odd: 23.22 Glenavon – Carrick Rangers X 4.30 1:1 Win
03.03.2021 Aarhus – Nordsjaelland 2 5.60 0:1 Win
odd: 23.52 Lubeck – Hansa Rostock 1 4.20 1:0 Win
04.03.2021 St. Liege – Club Brugge KV 1 4.60 1:0 Win
odd: 22,54 Volos – AEK Athens FC 1 4.90 1:0 Win
05.03.2021 Sepsi Sf. Gheorghe – Chindia Targoviste 2 5.00 0:1 Win
odd: 26.00 Grasshoppers – Winterthur 2 5.20 0:1 Win
06.03.2021 Weymouth – Stockport 1 6.50 1:0 Win
odd: 57.85 Le Puy – Lorient 1 8.90 1:0 Win
07.03.2021 Suduva – FK Panevezys 2 5.50 0:1 Win
odd: 24.75 Virtus Francavilla – Ternana X 4.50 1:1 Win
08.03.2021 Comuna Recea – U. Cluj 1 4.75 1:0 Win
odd: 24.93 Rubin Kazan – Zenit 1 5.25 2:1 Win
09.03.2021` Glentoran – Ballymena 2 7.00 0:2 Win
odd: 44.80 Jong PSV – Dordrecht 2 6.40 0:1 Win
10.03.2021 Anadia – Castro Daire 2 7.90 1:2 Win
odd: 26.07 Odra Opole – Widzew Lodz X 3.30 0:0 Win
11.03.2021 Ajman – Shabab Al-Ahli Dubai X 5.10 1:1 Win
odd: 21.93 Al Fujairah – Al Wasl X 4.30 1:1 Win
12.03.2021 Augsburg – B. Monchengladbach 1 4.75 3:1 Win
odd: 30.87 Suwalki – Blekitni Stargard 2 6.50 0:1 Win
13.03.2021 Troyes – Nancy 2 5.60 1:5 Win
odd: 28.56 Stade Briochin – Cholet 2 5.10 0:1 Win
14.03.2021 Parma – AS Roma 1 5.50 2:0 Win
odd: 30.25 Granada CF – Real Sociedad 1 5.50 1:0 Win
15.03.2021 Nottingham U23 – Crewe U23 2 8.50 0:2 Win
odd: 35.70 Arouca – Penafiel 2 4.20 0:1 Win
16.03.2021 Glenavon – Glentoran 1 4.00 2:1 Win
odd: 48.00 Aizawl – Indian Arrows 2 12.00 1:2 Win
17.03.2021 Thisted FC – Holstebro X 5.35 0:0 Win
odd: 24.07 Como – AlbinoLeffe 2 4.50 1:2 Win
18.03.2021 Zizkov – Prostejov 2 5.50 1:2 Win
odd: 22.55 Krasnodar – Dynamo Moscow 2 4.10 2:3 Win
19.03.2021 Rubin Kazan – Khimki 2 5.70 1:3 Win
odd: 27.07 Leczna – Korona Kielce 2 4.75 0:1 Win
20.03.2021 Orgryte – Trollhattan 2 5.40 0:3 Win
odd: 37.80 Bala – Caernarfon 2 7.00 1:2 Win
21.03.2021 Hertha Berlin – Bayer Leverkusen 1 4.00 3:0 Win
odd: 29.20 Differdange – Mondorf 2 7.30 1:2 Win
22.03.2021 Acao – Cuiaba Esporte X 5.50 0:0 Win
odd: 23.65 Cesar Vallejo – Alianza Huanuco 2 4.30 0:1 Win
23.03.2021 Brora Rangers – Hearts 1 15.00 2:1 Win
odd: 67.50 Peterhead – Stenhousemuir 2 4.50 0:1 Win
24.03.2021 America De Cali – Ind. Medellin 2 6.00 1:2 Win
odd: 27.00 B. Monchengladbach II – Homberg 2 4.50 0:2 Win
25.03.2021 Kalju – Tulevik X 4.70 1:1 Win
odd: 29.61 England U21 – Switzerland U21 2 6.30 0:1 Win
26.03.2021 Fluminense – Volta Redonda 2 6.30 2:3 Win
odd: 39.69 Dundalk – Finn Harps 2 6.30 1:2 Win
27.03.2021 Hearts – Queen of South 2 8.50 2:3 Win
odd: 32.30 Montrose – Clyde X 3.80 2:2 Win
28.03.2021 Naestved – AB Copenhagen 2 4.40 1:2 Win
odd: 21.12 Livorno – Pro Vercelli 1 4.80 2:1 Win
29.03.2021 San Martin S.J. – Brown Adrogue 2 4.90 1:2 Win
odd: 48.51 Moto Club – Sao Jose MA 2 9.90 0:1 Win
30.03.2021 Cyprus – Slovenia 1 5.50 1:0 Win
odd: 24.20 Slovakia – Russia 1 4.40 1:0 Win
31.03.2021 Ukraine – Kazakhstan X 6.50 1:1 Win
odd: 136.50 Germany – North Macedonia 2 21.00 1:2 Win

Fixed Matches, Correct score,Vip tickets who are 100% safe    

    FIXED SCORE 100% SURE

    Red Star Fixed Matches

  fixed matches 100 sure win  

  Juventus-bet logo  

   megapicks-1x2.com, 100% sure football matches, free fixed matches today 100% sure predictions , vip tips1x2, fixed matches, fixed matches 100% sure, free tips 100% sure, correct score http://i.imgur.com/anP2f6t.gif

FREE TIPS

http://i.imgur.com/anP2f6t.gif 

15.04.2021

21:00 AS Roma – Ajax​  X  3.90

Contact email: zidanetips1@gmail.com

Whatsapp: +389 79 349 683

megapicks-1x2.com, 100% sure football matches, free fixed matches today 100% sure predictions , vip tips1x2, fixed matches, fixed matches 100% sure, free tips 100% sure, correct score

Archive for February 2021

Date Match Tip Odd Ft W/L
01.02.2021 Rayka Babol – Fajr Sepasi 2 4.30 0:2 Win
odd: 21.93 Al Salmiya – Al Shabab 2 5.10 1:2 Win
02.02.2021 RW Essen – Bayer Leverkusen X 8.30 0:0 Win
odd: 27.39 Kisvarda – MTK Budapest 2 3.30 0:2 Win
03.02.2021 Odense – Lyngby 2 6.80 0:1 Win
odd: 24.48 Regensburg – FC Koln X 3.60 2:2 Win
04.02.2021 Wigan U23 – Coventry U23 X 5.70 1:1 Win
odd: 54.15 Smyrnis – AEK Athens FC 1 9.50 2:1 Win
05.02.2021 Rodez – Clermont 1 4.50 2:0 Win
odd: 24.75 Zhodino – Isloch X 5.50 2:2 Win
06.02.2021 Astra – FC Arges 2 4.75 0:2 Win
odd: 30.87 Larne – Warrenpoint X 6.50 1:1 Win
07.02.2021 LASK – A. Klagenfurt X 6.50 2:2 Win
odd: 53.95 APOEL – Achnas 2 8.30 2:3 Win
08.02.2021 Hap. Ramat Gan – Hapoel Kfar Shalem 2 5.90 0:2 Win
odd: 34.81 Viitorul Constanta – FC Voluntari 2 5.90 0:1 Win
09.02.2021` Reims – Valenciennes 2 5.60 3:4 Win
odd: 22.96 Swansea U23 – QPR U23 X 4.10 1:1 Win
10.02.2021 Rijeka – Hajduk Split 2 3.95 0:1 Win
odd: 25.67 Tallya – Kaposvar 1 6.50 5:3 Win
11.02.2021 Khimki – Chertanovo M. 2 10.50 0:2 Win
odd: 58.80 Zaglebie – Chojniczanka X 5.60 0:0 Win
12.02.2021 AS Vita Club – Simba 2 8.80 0:1 Win
odd: 57.20 USM Alger – Mlila 2 6.50 0:1 Win
13.02.2021 Charlton – Gillingham 2 4.40 2:3 Win
odd: 26.84 Spezia – AC Milan 1 6.10 2:0 Win
14.02.2021 Rennes – St Etienne 2 4.50 0:2 Win
odd: 22.50 Vitesse – Twente 2 5.00 0:2 Win
15.02.2021 Jong Ajax – Dordrecht 2 9.70 1:2 Win
odd: 53.35 CFR Cluj – FC Voluntari X 5.50 0:0 Win
16.02.2021 Hapoel Iksal Imad – Hapoel K. Shalem 2 5.50 3:4 Win
odd: 30.25 Oxford Utd – Tranmere 2 5.50 0:2 Win
17.02.2021 Renate – AlbinoLeffe 2 4.60 0:2 Win
odd: 21.16 Sambenedettese – Imolese 2 4.60 1:3 Win
18.02.2021 Molde – Hoffenheim X 4.80 3:3 Win
odd: 28.32 Tubas – Al Quds 1 5.90 1:0 Win
19.02.2021 Jablonec – Mlada Boleslav X 4.10 1:1 Win
odd: 29.11 Hap. Ramat Gan – Hapoel Bnei Lod X 7.10 1:1 Win
20.02.2021 Cittadella – Reggiana 2 6.40 0:3 Win
odd: 30.08 Cliftonville – Larne 1 4.70 1:0 Win
21.02.2021 Fenerbahce – Goztepe 2 6.50 0:1 Win
odd: 64.35 Kalmar – Umea FC 2 9.90 1:2 Win
22.02.2021 FK Vozdovac – Rad Beograd 2 4.90 0:1 Win
odd: 28.91 Hapoel Bnei Lod – Shimshon Kafr Qasim 1 5.90 4:1 Win
23.02.2021 Al-Merreikh (Sud) – AS Vita Club (Drc) 2 5.70 1:4 Win
odd: 32.49 Middlesbrough – Bristol City 2 5.70 1:3 Win
24.02.2021 Vaduz – Luzern X 3.90 1:1 Win
odd: 47.19 St. George's FC – Swieqi 1 12.10 1:0 Win
25.02.2021 Hoffenheim – Molde 2 10.50 0:2 Win
odd: 51.45 Bayer Leverkusen – Young Boys 2 4.90 0:2 Win
26.02.2021 Rennes – Nice 2 4.90 1:2 Win
odd: 22.54 West Ham U23 – Derby U23 X 4.60 0:0 Win
27.02.2021 Dordrecht – Helmond 1 4.35 2:1 Win
odd: 26.97 Hibernian – Motherwell 2 6.20 0:2 Win
28.02.2021 Bayer Leverkusen – Freiburg 2 4.80 1:2 Win
odd: 23.04 Sparta Rotterdam – Willem II 2 4.80 0:2 Win

Archive for January 2021

Date Match Tip Odd Ft W/L
01.01.2021 Shamal – Lusail 2 9.90 0:1 Win
odd: 39.60 Al Wasl – Shabab Al-Ahli Dubai X 4.00 2:2 Win
02.01.2021 Millwall – Coventry 2 4.40 1:2 Win
odd: 29.48 Aris – Paeek 2 6.70 0:1 Win
03.01.2021 Holstein Kiel – VfL Osnabruck 2 5.20 1:2 Win
odd: 23.40 Giannina – Smyrnis 2 4.50 1:3 Win
04.01.2021 Agropecuario – Ferro 2 4.20 0:1 Win
odd: 22.05 Lamia – Aris 1 5.25 2:0 Win
05.01.2021 Raja Casablanca – Teungueth X 5.90 0:0 Win
odd: 28.91 Godoy Cruz – Estudiantes L.P. 1 4.90 1:0 Win
06.01.2021 Sampdoria – Inter 1 6.80 2:1 Win
odd: 40.12 St Etienne – Paris SG X 5.90 1:1 Win
07.01.2021 Atromitos – PAOK 1 7.70 3:2 Win
odd: 41.58 Maccabi Tel Aviv – Bnei Yehuda X 5.40 0:0 Win
08.01.2021 Cambuur – FC Volendam 2 5.90 0:1 Win
odd: 28.02 Lausanne – Xamax X 4.75 1:1 Win
09.01.2021` Hungerford – Maidstone 1 4.40 2:1 Win
odd: 25.96 Blackburn – Doncaster 2 5.90 0:1 Win
10.01.2021 Arminia Bielefeld – Hertha Berlin 1 3.90 1:0 Win
odd: 29.25 Flamengo RJ – Ceara 2 7.50 0:2 Win
11.01.2021 Alanyaspor – Kasimpasa 2 5.30 1:2 Win
odd: 20.67 Bradford PA – Boston Utd X 3.90 1:1 Win
12.01.2021 Chorley – Leamington 2 4.10 1:2 Win
odd: 21.32 Comillas – Varea X 5.20 0:0 Win
13.01.2021 Tarxien – Floriana X 4.90 2:2 Win
odd: 24.01 Moura AC – Aljustrelense 2 4.90 0:1 Win
14.01.2021 Al-Ittihad FC – Abha 2 5.60 0:1 Win
odd: 29.40 FC Botosani – FC Arges 2 5.25 0:1 Win
15.01.2021 Union Berlin – Bayer Leverkusen 1 4.20 1:0 Win
odd: 22.68 Austria Vienna II – Grazer X 5.40 2:2 Win
16.01.2021 Bournemouth – Luton 2 6.10 0:1 Win
odd: 27.45 Derby – Rotherham 2 4.50 0:1 Win
17.01.2021 Navalcarnero – Eibar 1 5.90 3:1 Win
odd: 23.60 Academico Viseu – Oliveirense 2 4.00 1:2 Win
18.01.2021 Estoril – Covilha X 5.30 0:0 Win
odd: 20.67 Kasimpasa – Erzurum BB 2 3.90 1:2 Win
19.01.2021 Kayserispor – Basaksehir 1 4.60 2:0 Win
odd: 27.14 FC Halifax – Southport 2 5.90 1:2 Win
20.01.2021 Cardiff – QPR 2 4.35 0:1 Win
odd: 42.19 Ferencvaros – DVTK 2 9.70 0:1 Win
21.01.2021 Shakhtar Donetsk – Lech Poznan X 4.50 1:1 Win
odd: 23.85 Drita – Jagodina X 5.30 2:2 Win
22.01.2021 Liefering – Amstetten 2 5.40 0:1 Win
odd: 25.65 Pogon Szczecin – Arka Gdynia X 4.75 2:2 Win
23.01.2021 UTA Arad – FC Arges 2 4.35 1:2 Win
odd: 38.28 Hearts – Raith 2 8.80 2:3 Win
24.01.2021 Santos – Goias 2 7.90 3:4 Win
odd: 69.52 LASK – Tirol 2 8.80 2:4 Win
25.01.2021 Dominican Republic – Serbia X 6.30 0:0 Win
odd: 37.17 Al Wakra – Al-Kharitiyath 2 5.90 1:2 Win
26.01.2021 Esbjerg – Vejle X 4.30 0:0 Win
odd: 29.67 Al-Gharafa – Al-Shahaniya X 6.90 2:2 Win
27.01.2021 Dubnica – Nitra X 4.30 1:1 Win
odd: 24.08 Zurich – Vaduz 2 5.60 0:1 Win
28.01.2021 Ufa – Sp. Subotica 2 6.20 1:2 Win
odd: 38.44 Sakhnin – H. Beer Sheva 1 6.20 1:0 Win
29.01.2021 Orenburg – Prishtina 2 7.80 1:2 Win
odd: 33.54 Trencin – L. Mikulas 2 4.30 2:3 Win
30.01.2021 First Vienna – BW Linz 1 7.90 6:1 Win
odd: 37.52 Basaksehir – Hatayspor 2 4.75 1:5 Win
31.01.2021 Orenburg – Rudar 2 6.50 2:3 Win
odd: 23.40 Basel – Lugano X 3.60 2:2 Win

Recomended Bookmakers
Bookmakers
ladbrokers, soccerprobet, pro-soccertip, pro soccer tip 1x2bet365, pro soccer tip, bet365 professional soccer tip, prosoccer bet adviceladbrokers, soccerprobet, pro-soccertip, pro soccer tip 1x2